Location: Waco, TX
(31.5480°N, 97.1670°W)
Time: 00:27:46
(UTC-05:00)

ISS - Pass Details

Date: 19 October 2018
Orbit: 403 x 408 km, 51.6° (Epoch: 21 October)

Event Time Altitude Azimuth Distance (km) Brightness Sun altitude
Rises 17:07:29 0° 319° (NW) 2,330 0.2 20.2°
Reaches altitude 10° 17:09:36 10° 323° (NW) 1,467 -0.8 19.8°
Maximum altitude 17:12:50 57° 43° (NE) 482 -3.5 19.2°
Drops below altitude 10° 17:16:04 10° 124° (ESE) 1,460 -1.2 18.6°
Sets 17:18:10 0° 128° (SE) 2,316 -0.2 18.2°
